Regional Weather Roundup
Issued by NWS

Home | Current Version | Previous Version | Graphics & Text | Print | Product List | Glossary On
Versions: 1 2 3 4 5 6 7 8 9 10 11 12 13 14 15 16 17 18 19 20 21 22 23 24 25 26 27 28 29 30 31 32 33 34 35 36 37 38 39 40 41 42 43 44 45 46 47 48 49 50
000
ASUS43 KMKX 232300
RWRWI

WISCONSIN REGIONAL WEATHER ROUNDUP
NATIONAL WEATHER SERVICE MILWAUKEE/SULLIVAN WI
600 PM CDT FRI JUN 23 2017

NOTE: "FAIR" INDICATES FEW OR NO CLOUDS BELOW 12,000 FEET WITH NO
SIGNIFICANT WEATHER AND/OR OBSTRUCTIONS TO VISIBILITY.

WIZ001-002-006>008-014>016-023>028-240000-
NORTHWEST WISCONSIN

CITY           SKY/WX    TMP DP  RH WIND       PRES   REMARKS
SUPERIOR ARPT  NOT AVBL
ASHLAND        MOSUNNY   70  49  47 NW8       29.71S
HAYWARD        PTSUNNY   69  49  48 W9        29.75R
SIREN          LGT RAIN  58  53  83 NW9G20    29.81R
CUMBERLAND     MOSUNNY   68  48  49 NW12G20   29.78R
RICE LAKE      PTSUNNY   68  49  50 W10G18    29.79R
CHETEK         PTSUNNY   68  53  58 MISG      29.77R
LADYSMITH      PTSUNNY   71  52  51 W17       29.77R
EAU CLAIRE     NOT AVBL
MENOMONIE      CLOUDY    68  50  52 W16G22    29.79R
NEW RICHMOND   NOT AVBL
OSCEOLA        CLOUDY    68  53  58 W14G22    29.84R
$$

WIZ003>005-009-010-017-018-240000-
NORTH CENTRAL WISCONSIN

CITY           SKY/WX    TMP DP  RH WIND       PRES   REMARKS
MANITOWISH WTR CLOUDY    64  48  56 NW9G17    29.72S
ARBOR VITAE    PTSUNNY   65  47  52 N15G21    29.72R
WOODRUFF       PTSUNNY   65  47  52 N15G21    29.72R
RHINELANDER    CLOUDY    65  49  56 NW8G16    29.73R
EAGLE RIVER    MOSUNNY   66  44  45 W16G23    29.71R
LAND O LAKES   CLOUDY    66  45  46 NW14G22   29.72S
PHILLIPS       PTSUNNY   66  49  53 NW10G18   29.74R
TOMAHAWK       NOT AVBL
MEDFORD        CLOUDY    67  50  55 W15G22    29.75R
MERRILL        CLOUDY    69  50  51 NW13G18   29.73S
$$

WIZ029-030-035-036-043>047-240000-
CENTRAL WISCONSIN

CITY           SKY/WX    TMP DP  RH WIND       PRES   REMARKS
WAUSAU         CLOUDY    68  49  50 NW15      29.72R
MOSINEE        CLOUDY    66  54  63 W12       29.75R
MARSHFIELD     PTSUNNY   69  52  54 W12G22    29.75R
STEVENS POINT  PTSUNNY   68  51  53 W12G18    29.74S
WAUPACA        PTSUNNY   74  52  45 W12G20    29.73R
WAUTOMA        CLOUDY    71  54  54 NW15G21   29.75
WISC RAPIDS    CLOUDY    69  53  56 NW10      29.77R
CAMP DOUGLAS   NOT AVBL
$$

WIZ011>013-019>022-031-037>040-048>050-240000-
NORTHEAST WISCONSIN

CITY           SKY/WX    TMP DP  RH WIND       PRES   REMARKS
ANTIGO         CLOUDY    65  51  58 NW12      29.72S
SHAWANO        CLOUDY    72  51  47 NW10      29.69R
OCONTO         CLOUDY    73  51  45 W10G17    29.65R
STURGEON BAY     N/A     74  53  48 W14         N/A
GREEN BAY      CLOUDY    73  56  54 W15       29.68R
MANITOWOC      NOT AVBL
APPLETON       PTSUNNY   70  48  46 W16       29.70R
CLINTONVILLE   CLOUDY    70  48  46 W10G25    29.70R
OSHKOSH        CLOUDY    71  53  52 NW14      29.70R
$$

WIZ032>034-041-042-053>061-240000-
SOUTHWEST WISCONSIN

CITY           SKY/WX    TMP DP  RH WIND       PRES   REMARKS
LA CROSSE      MOSUNNY   77  54  44 W12       29.78F
SPARTA         PTSUNNY   71  53  54 NW14      29.79R
VIROQUA        MOSUNNY   67  55  65 W6        29.81S
BOSCOBEL       MOSUNNY   72  53  51 W9        29.80S
PRAIRIE DU CHI CLOUDY    71  52  50 W10G20    29.81S
PLATTEVILLE    CLOUDY    71  54  54 W14G23    29.81S
$$

WIZ056-057-062-063-064-067-068-240000-
SOUTH CENTRAL WISCONSIN

CITY           SKY/WX    TMP DP  RH WIND       PRES   REMARKS
REEDSBURG      CLOUDY    69  53  58 W12       29.77R
BARABOO/DELLS  CLOUDY    71  52  52 NW10G16   29.77R
LONE ROCK      NOT AVBL
MINERAL POINT  CLOUDY    72  54  53 NW13G20   29.80S
MADISON        CLOUDY    71  54  54 NW13G25   29.75R
MIDDLETON      CLOUDY    74  55  50 NW15G24   29.77R
WATERTOWN      MOSUNNY   74  53  48 W12G23    29.72R
MONROE         PTSUNNY   72  52  49 W20G30    29.78R
JANESVILLE     PTSUNNY   79  52  38 NW20      29.73R
$$

WIZ051-052-058>065-066-070>072-240000-
SOUTHEAST WISCONSIN

CITY           SKY/WX    TMP DP  RH WIND       PRES   REMARKS
MILWAUKEE      PTSUNNY   80  50  34 W16       29.68S HX  80
WAUKESHA       PTSUNNY   73  50  43 W13G22    29.71S
MILWAUKEE/TIMM MOSUNNY   75  43  31 W13G26    29.69S
RACINE         CLOUDY    78  51  38 W10G18    29.70F
KENOSHA        PTSUNNY   76  54  46 W13       29.70S
FOND DU LAC    PTSUNNY   73  52  47 NW17G25   29.71R
SHEBOYGAN      MOSUNNY   73  54  51 NW14G24   29.68R
WEST BEND      SUNNY     73  50  43 W17G25    29.70R
JUNEAU         MOSUNNY   73  54  52 W9G18     29.73R
$$

LSZ147-162-240000-
LAKE SUPERIOR

STATION/POSITION TIME  TEMP    WIND        PRES    WAVE
                       AIR SEA DIR/SP/G            HT/PER
                 (UTC) (F)     (DEG/KT/KT) (MB)    (FT/S)
W MID LAKE BUOY  2150   45 39  250/ 10/ 12 1004.7R   2/ 4
DEVILS ISLAND    2200   58     230/ 11/ 12 1005.6R
SAXON HARBOR     2240   67     320/  4/  5 1005.8F
$$

LMZ867-665-643>646-240000-
LAKE MICHIGAN

STATION/POSITION TIME  TEMP    WIND        PRES    WAVE
                       AIR SEA DIR/SP/G            HT/PER
                 (UTC) (F)     (DEG/KT/KT) (MB)    (FT/S)
CHAMBERS ISLAND  2240   72     290/  7/ 12 1003.4R
S GREEN BAY BUOY 2230   72     290/ 16/ 17 1004.1R
N MID LAKE BUOY  2150   61 56  210/  8/ 12 1002.9R   1
NORTHPORT PIER   2240   73     300/  7/ 13 1003.0R
KEWAUNEE LAKESHO 2230   75     290/  8/ 12 1004.0R
SHEBOYGAN LAKESH 2200   76     290/ 16/ 20 1003.9R
PORT WASHINGTON  2240   80     290/  7/ 16 1005.8R
ATWATER BUOY     2109   74 59  270/ 12/ 16 1005.4R
MILWAUKEE LAKESH 2240   78     290/ 14/ 22   N/A
S MID LAKE BUOY  2150   66 63  220/  8/  8 1005.3R   0
KENOSHA   LAKESH 2200   80     280/ 11/ 18 1005.1
$$

TC  - TEMPERATURE IN CELSIUS
VSB - VISIBILITY IN STATUTE MILES
WCI - WIND CHILL INDEX
HX  - HEAT INDEX





USA.gov is the U.S. government's official web portal to all federal, state and local government web resources and services.